This is the latest recevied weather packets stored in our database for station/object M0UPS-13. If no packets are shown the sender has not sent any weather packets the latest 10 day(s).
| Time | Temp. | Humidity | Pressure | Rain* | Wind** | Luminosity | Snow |
|---|---|---|---|---|---|---|---|
| 1777372502 | 11.11° C | 73% | 1025.1 hPa | 0 mm | - | 74 W/m² | - |
| 1777372203 | 11.11° C | 73% | 1025.2 hPa | 0 mm | - | 93 W/m² | - |
| 1777371902 | 10.56° C | 73% | 1025.5 hPa | 0 mm | - | 103 W/m² | - |
| 1777371602 | 10.56° C | 73% | 1025.5 hPa | 0 mm | - | 82 W/m² | - |
| 1777371302 | 11.11° C | 72% | 1025.2 hPa | 0 mm | - | 94 W/m² | - |
| 1777371003 | 11.11° C | 73% | 1025.1 hPa | 0 mm | - | 105 W/m² | - |
| 1777370702 | 11.11° C | 73% | 1025.3 hPa | 0 mm | - | 106 W/m² | - |
| 1777370402 | 11.11° C | 73% | 1025.2 hPa | 0 mm | - | 88 W/m² | - |
| 1777370103 | 11.11° C | 72% | 1025.1 hPa | 0 mm | - | 98 W/m² | - |
| 1777369802 | 11.11° C | 71% | 1025 hPa | 0 mm | - | 118 W/m² | - |
| 1777369502 | 11.11° C | 71% | 1025 hPa | 0 mm | - | 132 W/m² | - |
| 1777369202 | 11.11° C | 71% | 1024.9 hPa | 0 mm | - | 156 W/m² | - |
| 1777368903 | 11.11° C | 71% | 1025.2 hPa | 0 mm | - | 164 W/m² | - |
| 1777368603 | 11.11° C | 71% | 1025 hPa | 0 mm | - | 100 W/m² | - |
| 1777368302 | 11.11° C | 72% | 1024.9 hPa | 0 mm | - | 98 W/m² | - |
| 1777368002 | 11.11° C | 72% | 1025.2 hPa | 0 mm | - | 96 W/m² | - |
| 1777367702 | 11.11° C | 72% | 1025 hPa | 0 mm | - | 73 W/m² | - |
| 1777367403 | 11.11° C | 72% | 1024.9 hPa | 0 mm | - | 87 W/m² | - |
| 1777367102 | 11.11° C | 72% | 1025 hPa | 0 mm | - | 98 W/m² | - |
| 1777366802 | 11.11° C | 72% | 1025 hPa | 0 mm | - | 99 W/m² | - |
| 1777366502 | 11.11° C | 73% | 1024.8 hPa | 0 mm | - | 102 W/m² | - |
| 1777366202 | 11.11° C | 72% | 1025 hPa | 0 mm | - | 94 W/m² | - |
| 1777365902 | 11.11° C | 73% | 1025 hPa | 0 mm | - | 136 W/m² | - |
| 1777365603 | 11.11° C | 74% | 1024.8 hPa | 0 mm | - | 112 W/m² | - |
| 1777365302 | 11.11° C | 74% | 1024.9 hPa | 0 mm | - | 47 W/m² | - |
* Rain latest hour (hover to see other rain measurements)
** Current wind speed in m/s (hover to see current wind gust speed)